Location: Dortmund
(51.5019°N, 7.6520°E)
Time: 04:57:07
(UTC+02:00)

ISS - Pass Details

Date: 24 March 2019
Orbit: 408 x 410 km, 51.6° (Epoch: 21 April)

Event Time Altitude Azimuth Distance (km) Brightness Sun altitude
Rises 21:02:41 0° 250° (WSW) 2,333 0.6 -20.6°
Reaches altitude 10° 21:04:46 10° 248° (WSW) 1,473 -0.5 -20.8°
Enters shadow 21:07:09 43° 235° (SW) 585 -3.0 -21.1°
